Vlieland, Netherlands

8:12 PM CEST on May 24, 2018 (GMT +0200)
Vlieland

Weather History for EHVL - October, 2013

Change the Weather History Date:

Wednesday, October 23, 2013

  Actual Average Record
Temperature  
Mean Temperature 60 °F -  
Max Temperature 64 °F 49 °F 64 °F (2013)
Min Temperature 55 °F 43 °F 37 °F (2007)
Degree Days  
Heating Degree Days 6    
Growing Degree Days 10 (Base 50)    
Moisture  
Dew Point 54 °F    
Average Humidity 81    
Maximum Humidity 100    
Minimum Humidity 63    
Precipitation  
Precipitation 0.00 in - - ()
Sea Level Pressure  
Sea Level Pressure 29.52 in    
Wind  
Wind Speed 26 mph ()    
Max Wind Speed 40 mph    
Max Gust Speed 51 mph    
Visibility 6.1 miles    
Events Rain    
Averages and records for this station are not official NWS values.
T = Trace of Precipitation, MM = Missing Value Source: Averaged Metar Reports

Daily Weather History Graph

Daily Weather History Graph

Search for Another Location

Airport or City:

Astronomy

Oct. 23, 2013 Rise Set
Actual Time 8:21 AM CEST 6:26 PM CEST
Civil Twilight 7:46 AM CEST 7:02 PM CEST
Nautical Twilight 7:05 AM CEST 7:42 PM CEST
Astronomical Twilight 6:25 AM CEST 8:22 PM CEST
Moon 9:21 PM CEST (10/23) 12:49 PM CEST (10/23)
Length of Visible Light 11h 16m
Length of Day
10h 04m
Waning Gibbous, 81% of the Moon is Illuminated
Oct 23
Waning Gibbous
Oct 27
Last Quarter
Nov 3
New
Nov 10
First Quarter
Nov 17
Full

Hourly Weather History & Observations

Time (CEST) Temp. Dew Point Humidity Pressure Visibility Wind Dir Wind Speed Gust Speed Precip Events Conditions
7:55 AM - - N/A% 0.00 in - North - - N/A   Unknown
8:25 AM 57.2 °F 57.2 °F 100% 29.42 in 6.2 mi South 19.6 mph - N/A   Mostly Cloudy
8:55 AM 59.0 °F 57.2 °F 94% 29.42 in 6.2 mi South 23.0 mph - N/A   Overcast
9:25 AM 59.0 °F 57.2 °F 94% 29.42 in 6.2 mi South 20.7 mph - N/A   Unknown
9:55 AM 60.8 °F 57.2 °F 88% 29.42 in 6.2 mi South 21.9 mph - N/A   Unknown
10:25 AM 59.0 °F 57.2 °F 94% 29.42 in 6.2 mi South 21.9 mph - N/A   Unknown
10:55 AM 60.8 °F 57.2 °F 88% 29.42 in 6.2 mi South 20.7 mph - N/A   Mostly Cloudy
11:25 AM 60.8 °F 57.2 °F 88% 29.44 in 6.2 mi South 23.0 mph - N/A   Overcast
11:30 AM 60.8 °F 57.2 °F 88% 29.44 in 6.2 mi South 24.2 mph - N/A   Mostly Cloudy
11:35 AM 62.6 °F 57.2 °F 82% 29.44 in 6.2 mi SSW 27.6 mph 41.4 mph N/A   Mostly Cloudy
11:55 AM 64.4 °F 55.4 °F 73% 29.44 in 6.2 mi SSW 35.7 mph - N/A   Partly Cloudy
12:25 PM 62.6 °F 55.4 °F 77% 29.44 in 6.2 mi SSW 38.0 mph - N/A   Mostly Cloudy
12:55 PM 64.4 °F 55.4 °F 73% 29.42 in 6.2 mi SSW 38.0 mph - N/A   Partly Cloudy
1:25 PM 62.6 °F 53.6 °F 72% 29.42 in 6.2 mi SSW 38.0 mph - N/A   Partly Cloudy
1:36 PM 64.4 °F 53.6 °F 68% 29.42 in 6.2 mi SSW 38.0 mph - N/A   Mostly Cloudy
1:42 PM 62.6 °F 53.6 °F 72% 29.42 in 6.2 mi SSW 39.1 mph - N/A   Mostly Cloudy
1:55 PM 62.6 °F 55.4 °F 77% 29.44 in 6.2 mi SSW 36.8 mph 50.6 mph N/A   Mostly Cloudy
2:06 PM 64.4 °F 55.4 °F 73% 29.42 in 6.2 mi SSW 38.0 mph - N/A   Mostly Cloudy
2:20 PM 62.6 °F 55.4 °F 77% 29.44 in 6.2 mi SSW 38.0 mph 49.5 mph N/A   Mostly Cloudy
2:25 PM 62.6 °F 55.4 °F 77% 29.44 in 6.2 mi SSW 39.1 mph - N/A   Mostly Cloudy
2:37 PM 62.6 °F 55.4 °F 77% 29.44 in 6.2 mi SSW 40.3 mph - N/A   Mostly Cloudy
2:41 PM 62.6 °F 53.6 °F 72% 29.44 in 6.2 mi SSW 40.3 mph - N/A   Mostly Cloudy
2:55 PM - - N/A% 29.44 in - SSW 40.3 mph - N/A   Unknown
3:25 PM - - N/A% 29.44 in - SSW 38.0 mph - N/A   Unknown
3:55 PM 62.6 °F 55.4 °F 77% 29.47 in - SW 35.7 mph - N/A   Unknown
4:25 PM 60.8 °F 55.4 °F 82% 29.47 in 6.2 mi SW 34.5 mph - N/A   Overcast
4:33 PM 60.8 °F 55.4 °F 82% 29.47 in 5.6 mi SW 33.4 mph - N/A   Overcast
4:41 PM 60.8 °F 55.4 °F 82% 29.47 in 5.6 mi SW 33.4 mph 47.2 mph N/A   Overcast
4:55 PM 60.8 °F 55.4 °F 82% 29.47 in 6.2 mi SSW 36.8 mph - N/A   Overcast
5:20 PM 60.8 °F 55.4 °F 82% 29.50 in 4.3 mi SW 33.4 mph - N/A   Mostly Cloudy
5:25 PM 60.8 °F 55.4 °F 82% 29.50 in 5.0 mi SW 33.4 mph - N/A   Mostly Cloudy
5:38 PM 60.8 °F 55.4 °F 82% 29.50 in 5.6 mi SW 32.2 mph - N/A   Mostly Cloudy
5:55 PM 60.8 °F 55.4 °F 82% 29.53 in 6.2 mi SW 32.2 mph - N/A   Overcast
6:25 PM 59.0 °F 55.4 °F 88% 29.53 in 6.2 mi SW 32.2 mph - N/A   Mostly Cloudy
6:55 PM 59.0 °F 55.4 °F 88% 29.56 in 6.2 mi SW 31.1 mph - N/A   Overcast
7:10 PM 59.0 °F 55.4 °F 88% 29.56 in 6.2 mi SW 32.2 mph 47.2 mph N/A   Overcast
7:25 PM 55.4 °F 53.6 °F 94% 29.59 in 6.2 mi WSW 27.6 mph - N/A Rain Light Rain
7:55 PM 57.2 °F 53.6 °F 88% 29.59 in 6.2 mi WSW 24.2 mph - N/A   Overcast
8:20 PM 57.2 °F 53.6 °F 88% 29.62 in 6.2 mi West 25.3 mph - N/A   Mostly Cloudy
8:25 PM 57.2 °F 51.8 °F 82% 29.62 in 6.2 mi West 24.2 mph - N/A   Overcast
8:30 PM 57.2 °F 51.8 °F 82% 29.62 in 6.2 mi West 21.9 mph - N/A   Overcast
8:40 PM 57.2 °F 51.8 °F 82% 29.62 in 6.2 mi West 23.0 mph - N/A   Mostly Cloudy
8:55 PM 57.2 °F 51.8 °F 82% 29.65 in 6.2 mi West 21.9 mph - N/A   Mostly Cloudy
9:10 PM 57.2 °F 51.8 °F 82% 29.65 in 6.2 mi West 20.7 mph - N/A   Mostly Cloudy
9:15 PM 57.2 °F 53.6 °F 88% 29.65 in 6.2 mi WSW 18.4 mph - N/A   Mostly Cloudy
9:25 PM 57.2 °F 51.8 °F 82% 29.65 in 6.2 mi WSW 19.6 mph - N/A   Mostly Cloudy
9:30 PM 57.2 °F 51.8 °F 82% 29.65 in 6.2 mi WSW 20.7 mph - N/A   Mostly Cloudy
9:55 PM 57.2 °F 51.8 °F 82% 29.68 in 6.2 mi WSW 21.9 mph - N/A   Partly Cloudy
10:25 PM 57.2 °F 51.8 °F 82% 29.68 in 6.2 mi WSW 25.3 mph - N/A   Unknown
10:35 PM 57.2 °F 50.0 °F 77% 29.68 in 6.2 mi West 27.6 mph - N/A   Partly Cloudy
10:50 PM 57.2 °F 48.2 °F 72% 29.71 in 6.2 mi West 26.5 mph - N/A   Partly Cloudy
10:55 PM 57.2 °F 48.2 °F 72% 29.71 in 6.2 mi West 26.5 mph - N/A   Partly Cloudy
11:25 PM 57.2 °F 46.4 °F 67% 29.71 in 6.2 mi West 24.2 mph - N/A   Partly Cloudy
11:55 PM 55.4 °F 42.8 °F 63% 29.74 in 6.2 mi West 28.8 mph - N/A   Partly Cloudy